Time,TemperatureF,DewpointF,PressureIn,WindDirection,WindDirectionDegrees,WindSpeedMPH,WindSpeedGustMPH,Humidity,HourlyPrecipIn,Conditions,Clouds,dailyrainin,SolarRadiationWatts/m^2,SoftwareType,DateUTC
2013-04-19 00:01:00,30.7,28.9,29.44,NW,309,0.0,0.0,93,0.00,,---,0.12,0.00,VWS V14.00,2013-04-19 05:01:00,
2013-04-19 00:06:00,30.7,28.9,29.44,NNW,337,0.0,0.0,93,0.00,,---,0.00,0.00,VWS V14.00,2013-04-19 05:06:00,
2013-04-19 00:11:00,30.7,28.9,29.44,NW,326,0.0,0.0,93,0.00,,---,0.00,0.00,VWS V14.00,2013-04-19 05:11:00,
2013-04-19 00:16:00,30.7,28.9,29.44,NNW,333,0.0,0.0,93,0.00,,---,0.00,0.00,VWS V14.00,2013-04-19 05:16:00,
2013-04-19 00:21:00,30.7,28.9,29.44,NW,315,0.0,0.0,93,0.00,,---,0.00,0.00,VWS V14.00,2013-04-19 05:21:00,
2013-04-19 00:26:00,30.7,28.9,29.44,NW,318,0.0,0.0,93,0.00,,---,0.00,0.00,VWS V14.00,2013-04-19 05:26:00,
2013-04-19 00:31:00,30.7,28.9,29.44,NW,325,0.0,0.0,93,0.00,,---,0.00,0.00,VWS V14.00,2013-04-19 05:31:00,
2013-04-19 00:36:00,30.7,28.9,29.44,NW,320,0.0,0.0,93,0.00,,---,0.00,0.00,VWS V14.00,2013-04-19 05:36:00,
2013-04-19 00:41:00,30.7,28.9,29.44,NW,320,0.0,0.0,93,0.00,,---,0.00,0.00,VWS V14.00,2013-04-19 05:41:00,
2013-04-19 00:46:00,30.7,28.9,29.44,North,359,0.0,0.0,93,0.00,,---,0.00,0.00,VWS V14.00,2013-04-19 05:46:00,
2013-04-19 00:51:00,30.7,28.9,29.43,NW,315,0.0,0.0,93,0.00,,---,0.00,0.00,VWS V14.00,2013-04-19 05:51:00,
2013-04-19 00:56:00,30.7,28.9,29.43,NW,323,0.0,0.0,93,0.00,,---,0.00,0.00,VWS V14.00,2013-04-19 05:56:00,
2013-04-19 01:01:00,30.7,28.9,29.43,NW,316,0.0,0.0,93,0.00,,---,0.00,0.00,VWS V14.00,2013-04-19 06:01:00,
2013-04-19 01:06:00,30.7,28.9,29.43,NNW,328,0.0,0.0,93,0.00,,---,0.00,0.00,VWS V14.00,2013-04-19 06:06:00,
2013-04-19 01:11:00,30.7,28.9,29.43,NNW,335,0.0,0.0,93,0.00,,---,0.00,0.00,VWS V14.00,2013-04-19 06:11:00,
2013-04-19 01:16:00,30.7,28.9,29.43,NW,320,0.0,0.0,93,0.00,,---,0.00,0.00,VWS V14.00,2013-04-19 06:16:00,
2013-04-19 01:21:00,30.7,28.9,29.43,NW,312,0.0,0.0,93,0.00,,---,0.00,0.00,VWS V14.00,2013-04-19 06:21:00,
2013-04-19 01:26:00,30.7,28.9,29.43,North,0,0.0,0.0,93,0.00,,---,0.00,0.00,VWS V14.00,2013-04-19 06:26:00,
2013-04-19 01:31:00,30.7,28.7,29.43,NNW,337,0.0,0.0,92,0.00,,---,0.00,0.00,VWS V14.00,2013-04-19 06:31:00,
2013-04-19 01:36:00,30.7,28.7,29.42,NNW,344,0.0,0.0,92,0.00,,---,0.00,0.00,VWS V14.00,2013-04-19 06:36:00,
2013-04-19 01:41:00,30.7,28.7,29.42,NW,311,0.0,0.0,92,0.00,,---,0.00,0.00,VWS V14.00,2013-04-19 06:41:00,
2013-04-19 01:46:00,30.7,28.7,29.42,NNW,336,0.0,0.0,92,0.00,,---,0.00,0.00,VWS V14.00,2013-04-19 06:46:00,
2013-04-19 01:51:00,30.7,28.7,29.42,WNW,296,0.0,0.0,92,0.00,,---,0.00,0.00,VWS V14.00,2013-04-19 06:51:00,
2013-04-19 01:56:00,30.7,28.7,29.42,NNW,343,0.0,0.0,92,0.00,,---,0.00,0.00,VWS V14.00,2013-04-19 06:56:00,
2013-04-19 02:01:00,30.7,28.7,29.42,North,0,0.0,0.0,92,0.00,,---,0.00,0.00,VWS V14.00,2013-04-19 07:01:00,
2013-04-19 02:06:00,30.7,28.7,29.42,NW,312,0.0,0.0,92,0.00,,---,0.00,0.00,VWS V14.00,2013-04-19 07:06:00,
2013-04-19 02:11:00,30.7,28.7,29.42,NW,312,0.0,0.0,92,0.00,,---,0.00,0.00,VWS V14.00,2013-04-19 07:11:00,
2013-04-19 02:16:00,30.7,28.7,29.42,WNW,295,0.0,0.0,92,0.00,,---,0.00,0.00,VWS V14.00,2013-04-19 07:16:00,
2013-04-19 02:21:00,30.6,28.6,29.42,NW,304,0.0,0.0,92,0.00,,---,0.00,0.00,VWS V14.00,2013-04-19 07:21:00,
2013-04-19 02:26:00,30.6,28.6,29.42,NNW,343,0.0,0.0,92,0.00,,---,0.00,0.00,VWS V14.00,2013-04-19 07:26:00,
2013-04-19 02:31:00,30.6,28.6,29.42,WNW,301,0.0,0.0,92,0.00,,---,0.00,0.00,VWS V14.00,2013-04-19 07:31:00,
2013-04-19 02:36:00,30.6,28.6,29.42,NNW,344,0.0,0.0,92,0.00,,---,0.00,0.00,VWS V14.00,2013-04-19 07:36:00,
2013-04-19 02:41:00,30.6,28.6,29.42,NW,304,0.0,0.0,92,0.00,,---,0.00,0.00,VWS V14.00,2013-04-19 07:41:00,
2013-04-19 02:46:00,30.6,28.6,29.42,WNW,295,0.0,0.0,92,0.00,,---,0.00,0.00,VWS V14.00,2013-04-19 07:46:00,
2013-04-19 02:51:00,30.6,28.6,29.42,NNW,329,0.0,0.0,92,0.00,,---,0.00,0.00,VWS V14.00,2013-04-19 07:51:00,
2013-04-19 02:56:00,30.6,28.6,29.42,NNE,13,0.0,0.0,92,0.00,,---,0.00,0.00,VWS V14.00,2013-04-19 07:56:00,
2013-04-19 03:01:00,30.6,28.6,29.42,NW,306,0.0,0.0,92,0.00,,---,0.00,0.00,VWS V14.00,2013-04-19 08:01:00,
2013-04-19 03:06:00,30.4,28.4,29.42,NW,318,0.0,0.0,92,0.00,,---,0.00,0.00,VWS V14.00,2013-04-19 08:06:00,
2013-04-19 03:11:00,30.4,28.4,29.42,NW,305,0.0,0.0,92,0.00,,---,0.00,0.00,VWS V14.00,2013-04-19 08:11:00,
2013-04-19 03:16:00,30.4,28.4,29.42,NNW,346,0.0,0.0,92,0.00,,---,0.00,0.00,VWS V14.00,2013-04-19 08:16:00,
2013-04-19 03:21:00,30.4,28.4,29.43,WNW,298,0.0,0.0,92,0.00,,---,0.00,0.00,VWS V14.00,2013-04-19 08:21:00,
2013-04-19 03:26:00,30.4,28.4,29.43,WNW,302,0.0,0.0,92,0.00,,---,0.00,0.00,VWS V14.00,2013-04-19 08:26:00,
2013-04-19 03:31:00,30.4,28.4,29.43,NW,318,0.0,0.0,92,0.00,,---,0.00,0.00,VWS V14.00,2013-04-19 08:31:00,
2013-04-19 03:36:00,30.4,28.4,29.43,WNW,294,0.0,0.0,92,0.00,,---,0.00,0.00,VWS V14.00,2013-04-19 08:36:00,
2013-04-19 03:41:00,30.3,28.3,29.43,North,0,0.0,0.0,92,0.00,,---,0.00,0.00,VWS V14.00,2013-04-19 08:41:00,
2013-04-19 03:46:00,30.3,28.3,29.43,NW,312,0.0,0.0,92,0.00,,---,0.00,0.00,VWS V14.00,2013-04-19 08:46:00,
2013-04-19 03:50:00,30.3,28.3,29.43,NW,322,0.0,0.0,92,0.00,,---,0.00,0.00,VWS V14.00,2013-04-19 08:50:00,
2013-04-19 03:55:00,30.3,28.3,29.43,NW,309,0.0,0.0,92,0.00,,---,0.00,0.00,VWS V14.00,2013-04-19 08:55:00,
2013-04-19 04:00:00,30.3,28.3,29.43,WNW,299,0.0,0.0,92,0.00,,---,0.00,0.00,VWS V14.00,2013-04-19 09:00:00,
2013-04-19 04:05:00,30.3,28.3,29.43,WNW,302,0.0,0.0,92,0.00,,---,0.00,0.00,VWS V14.00,2013-04-19 09:05:00,
2013-04-19 04:10:00,30.3,28.3,29.43,NW,305,0.0,0.0,92,0.00,,---,0.00,0.00,VWS V14.00,2013-04-19 09:10:00,
2013-04-19 04:15:00,30.3,28.3,29.43,NNW,328,0.0,0.0,92,0.00,,---,0.00,0.00,VWS V14.00,2013-04-19 09:15:00,
2013-04-19 04:20:00,30.3,28.3,29.43,WNW,301,0.0,0.0,92,0.00,,---,0.00,0.00,VWS V14.00,2013-04-19 09:20:00,
2013-04-19 04:25:00,30.3,28.3,29.43,WNW,296,0.0,0.0,92,0.00,,---,0.00,0.00,VWS V14.00,2013-04-19 09:25:00,
2013-04-19 04:30:00,30.1,28.1,29.43,NNW,347,0.0,0.0,92,0.00,,---,0.00,0.00,VWS V14.00,2013-04-19 09:30:00,
2013-04-19 04:35:00,30.1,28.1,29.44,NW,326,0.0,0.0,92,0.00,,---,0.00,0.00,VWS V14.00,2013-04-19 09:35:00,
2013-04-19 04:40:00,30.1,28.1,29.44,WNW,282,0.0,0.0,92,0.00,,---,0.00,0.00,VWS V14.00,2013-04-19 09:40:00,
2013-04-19 04:45:00,30.1,28.1,29.44,NNW,344,0.0,0.0,92,0.00,,---,0.00,0.00,VWS V14.00,2013-04-19 09:45:00,
2013-04-19 04:50:00,30.1,28.1,29.45,NW,315,0.0,0.0,92,0.00,,---,0.00,0.00,VWS V14.00,2013-04-19 09:50:00,
2013-04-19 04:55:00,30.0,28.0,29.45,NW,305,0.0,0.0,92,0.00,,---,0.00,0.00,VWS V14.00,2013-04-19 09:55:00,
2013-04-19 05:00:00,30.0,28.0,29.45,WNW,296,0.0,0.0,92,0.00,,---,0.00,0.00,VWS V14.00,2013-04-19 10:00:00,
2013-04-19 05:05:00,30.0,28.0,29.45,North,352,0.0,0.0,92,0.00,,---,0.00,0.00,VWS V14.00,2013-04-19 10:05:00,
2013-04-19 05:10:00,30.0,27.7,29.45,NW,315,0.0,0.0,91,0.00,,---,0.00,0.00,VWS V14.00,2013-04-19 10:10:00,
2013-04-19 05:15:00,30.0,27.7,29.45,WNW,291,0.0,0.0,91,0.00,,---,0.00,0.00,VWS V14.00,2013-04-19 10:15:00,
2013-04-19 05:20:00,29.8,27.5,29.45,NW,322,0.0,0.0,91,0.00,,---,0.00,0.00,VWS V14.00,2013-04-19 10:20:00,
2013-04-19 05:25:00,29.8,27.5,29.45,North,357,0.0,0.0,91,0.00,,---,0.00,0.00,VWS V14.00,2013-04-19 10:25:00,
2013-04-19 05:30:00,29.7,27.4,29.45,NW,326,0.0,0.0,91,0.00,,---,0.00,0.00,VWS V14.00,2013-04-19 10:30:00,
2013-04-19 05:35:00,29.7,27.4,29.45,NW,313,0.0,0.0,91,0.00,,---,0.00,0.00,VWS V14.00,2013-04-19 10:35:00,
2013-04-19 05:40:00,29.7,27.4,29.45,NNW,328,0.0,0.0,91,0.00,,---,0.00,0.00,VWS V14.00,2013-04-19 10:40:00,
2013-04-19 05:45:00,29.7,27.4,29.45,NW,318,0.0,0.0,91,0.00,,---,0.00,0.00,VWS V14.00,2013-04-19 10:45:00,
2013-04-19 05:50:00,29.5,27.2,29.46,NW,320,0.0,0.0,91,0.00,,---,0.00,0.00,VWS V14.00,2013-04-19 10:50:00,
2013-04-19 05:55:00,29.5,27.2,29.46,NW,309,0.0,0.0,91,0.00,,---,0.00,0.00,VWS V14.00,2013-04-19 10:55:00,
2013-04-19 06:00:00,29.5,26.9,29.46,NNW,329,0.0,0.0,90,0.00,,---,0.00,0.00,VWS V14.00,2013-04-19 11:00:00,
2013-04-19 06:05:00,29.5,26.9,29.47,NW,326,0.0,0.0,90,0.00,,---,0.00,0.00,VWS V14.00,2013-04-19 11:05:00,
2013-04-19 06:10:00,29.5,26.9,29.47,North,0,0.0,0.0,90,0.00,,---,0.00,0.00,VWS V14.00,2013-04-19 11:10:00,
2013-04-19 06:15:00,29.5,26.9,29.47,NNW,332,0.0,0.0,90,0.00,,---,0.00,0.00,VWS V14.00,2013-04-19 11:15:00,
2013-04-19 06:20:00,29.4,26.8,29.47,NW,322,0.0,0.0,90,0.00,,---,0.00,0.00,VWS V14.00,2013-04-19 11:20:00,
2013-04-19 06:25:00,29.4,26.8,29.47,WNW,301,0.0,0.0,90,0.00,,---,0.00,0.00,VWS V14.00,2013-04-19 11:25:00,
2013-04-19 06:30:00,29.4,26.8,29.47,NNW,347,0.0,0.0,90,0.00,,---,0.00,0.00,VWS V14.00,2013-04-19 11:30:00,
2013-04-19 06:35:00,29.4,26.6,29.49,NW,315,0.0,0.0,89,0.00,,---,0.00,0.00,VWS V14.00,2013-04-19 11:35:00,
2013-04-19 06:40:00,29.4,26.6,29.49,NW,325,0.0,0.0,89,0.00,,---,0.00,5.00,VWS V14.00,2013-04-19 11:40:00,
2013-04-19 06:45:00,29.4,26.6,29.49,NW,318,0.0,0.0,89,0.00,,---,0.00,9.00,VWS V14.00,2013-04-19 11:45:00,
2013-04-19 06:50:00,29.5,26.7,29.49,NW,313,0.0,0.0,89,0.00,,---,0.00,12.00,VWS V14.00,2013-04-19 11:50:00,
2013-04-19 06:55:00,29.5,26.7,29.49,WNW,302,0.0,0.0,89,0.00,,---,0.00,12.00,VWS V14.00,2013-04-19 11:55:00,
2013-04-19 07:00:00,29.5,26.7,29.49,NW,325,0.0,0.0,89,0.00,,---,0.00,16.00,VWS V14.00,2013-04-19 12:00:00,
2013-04-19 07:05:00,29.5,26.1,29.49,NNW,330,0.0,0.0,87,0.00,,---,0.00,16.00,VWS V14.00,2013-04-19 12:05:00,
2013-04-19 07:10:00,29.4,26.0,29.49,NNW,328,0.0,0.0,87,0.00,,---,0.00,28.00,VWS V14.00,2013-04-19 12:10:00,
2013-04-19 07:15:00,29.4,25.7,29.49,North,6,0.0,0.0,86,0.00,,---,0.00,28.00,VWS V14.00,2013-04-19 12:15:00,
2013-04-19 07:20:00,29.4,25.7,29.50,NNW,332,0.0,0.0,86,0.00,,---,0.00,28.00,VWS V14.00,2013-04-19 12:20:00,
2013-04-19 07:25:00,29.4,25.7,29.50,NNW,347,0.0,0.0,86,0.00,,---,0.00,49.00,VWS V14.00,2013-04-19 12:25:00,
2013-04-19 07:30:00,29.5,25.8,29.50,NW,323,0.0,0.0,86,0.00,,---,0.00,49.00,VWS V14.00,2013-04-19 12:30:00,
2013-04-19 07:35:00,29.4,25.5,29.51,NW,311,0.0,0.0,85,0.00,,---,0.00,53.00,VWS V14.00,2013-04-19 12:35:00,
2013-04-19 07:40:00,29.4,25.5,29.51,NW,315,0.0,0.0,85,0.00,,---,0.00,53.00,VWS V14.00,2013-04-19 12:40:00,
2013-04-19 07:45:00,29.4,25.5,29.51,North,0,0.0,0.0,85,0.00,,---,0.00,53.00,VWS V14.00,2013-04-19 12:45:00,
2013-04-19 07:50:00,29.4,25.2,29.51,NNW,343,0.0,0.0,84,0.00,,---,0.00,97.00,VWS V14.00,2013-04-19 12:50:00,
2013-04-19 07:55:00,29.4,25.2,29.51,NNW,333,0.0,0.0,84,0.00,,---,0.00,118.00,VWS V14.00,2013-04-19 12:55:00,
2013-04-19 08:00:00,29.5,25.0,29.51,NW,320,0.0,0.0,83,0.00,,---,0.00,158.00,VWS V14.00,2013-04-19 13:00:00,
2013-04-19 08:05:00,29.5,25.0,29.51,NNW,347,0.0,0.0,83,0.00,,---,0.00,158.00,VWS V14.00,2013-04-19 13:05:00,
2013-04-19 08:10:00,29.7,25.2,29.51,NW,315,0.0,0.0,83,0.00,,---,0.00,158.00,VWS V14.00,2013-04-19 13:10:00,
2013-04-19 08:15:00,29.7,25.5,29.51,NW,319,0.0,0.0,84,0.00,,---,0.00,183.00,VWS V14.00,2013-04-19 13:15:00,
2013-04-19 08:20:00,29.7,25.5,29.51,NNW,328,0.0,0.0,84,0.00,,---,0.00,169.00,VWS V14.00,2013-04-19 13:20:00,
2013-04-19 08:25:00,29.7,25.8,29.51,NW,311,0.0,0.0,85,0.00,,---,0.00,201.00,VWS V14.00,2013-04-19 13:25:00,
2013-04-19 08:30:00,29.8,25.9,29.51,NW,323,0.0,0.0,85,0.00,,---,0.00,201.00,VWS V14.00,2013-04-19 13:30:00,
2013-04-19 08:35:00,30.0,26.3,29.52,NNW,328,0.0,0.0,86,0.00,,---,0.00,223.00,VWS V14.00,2013-04-19 13:35:00,
2013-04-19 08:40:00,30.0,26.0,29.52,North,349,0.0,0.0,85,0.00,,---,0.00,223.00,VWS V14.00,2013-04-19 13:40:00,
2013-04-19 08:45:00,30.1,26.4,29.52,NW,322,0.0,0.0,86,0.00,,---,0.00,223.00,VWS V14.00,2013-04-19 13:45:00,
2013-04-19 08:50:00,30.3,26.3,29.52,NW,308,0.0,0.0,85,0.00,,---,0.00,194.00,VWS V14.00,2013-04-19 13:50:00,
2013-04-19 08:55:00,30.3,26.3,29.52,NNW,332,0.0,0.0,85,0.00,,---,0.00,171.00,VWS V14.00,2013-04-19 13:55:00,
2013-04-19 09:00:00,30.1,26.1,29.52,NNW,339,0.0,0.0,85,0.00,,---,0.00,171.00,VWS V14.00,2013-04-19 14:00:00,
2013-04-19 09:05:00,30.0,25.8,29.53,North,6,0.0,0.0,84,0.00,,---,0.00,171.00,VWS V14.00,2013-04-19 14:05:00,
2013-04-19 09:10:00,29.8,25.6,29.53,North,356,0.0,0.0,84,0.00,,---,0.00,171.00,VWS V14.00,2013-04-19 14:10:00,
2013-04-19 09:15:00,29.8,25.6,29.53,NNW,333,0.0,0.0,84,0.00,,---,0.00,171.00,VWS V14.00,2013-04-19 14:15:00,
2013-04-19 09:20:00,29.8,25.6,29.53,NNW,332,0.0,0.0,84,0.00,,---,0.00,169.00,VWS V14.00,2013-04-19 14:20:00,
2013-04-19 09:25:00,29.8,25.6,29.53,NW,323,0.0,0.0,84,0.00,,---,0.00,169.00,VWS V14.00,2013-04-19 14:25:00,
2013-04-19 09:30:00,29.8,25.6,29.53,NNW,330,0.0,0.0,84,0.00,,---,0.00,169.00,VWS V14.00,2013-04-19 14:30:00,
2013-04-19 09:35:00,29.8,25.6,29.54,WNW,294,0.0,0.0,84,0.00,,---,0.00,169.00,VWS V14.00,2013-04-19 14:35:00,
2013-04-19 09:40:00,29.8,25.0,29.54,NW,312,0.0,0.0,82,0.00,,---,0.00,151.00,VWS V14.00,2013-04-19 14:40:00,
2013-04-19 09:45:00,29.8,25.0,29.54,NNW,328,0.0,0.0,82,0.00,,---,0.00,151.00,VWS V14.00,2013-04-19 14:45:00,
2013-04-19 09:50:00,29.8,25.0,29.55,NNW,339,0.0,0.0,82,0.00,,---,0.00,148.00,VWS V14.00,2013-04-19 14:50:00,
2013-04-19 09:55:00,29.7,24.6,29.55,NNW,328,0.0,0.0,81,0.00,,---,0.00,155.00,VWS V14.00,2013-04-19 14:55:00,
2013-04-19 10:00:00,29.7,24.6,29.55,NNW,335,0.0,0.0,81,0.00,,---,0.00,155.00,VWS V14.00,2013-04-19 15:00:00,
2013-04-19 10:05:00,29.7,24.6,29.55,NW,323,7.0,7.0,81,0.00,,---,0.00,232.00,VWS V14.00,2013-04-19 15:05:00,
2013-04-19 10:10:00,29.4,24.3,29.55,NW,320,10.0,12.0,81,0.00,,---,0.00,232.00,VWS V14.00,2013-04-19 15:10:00,
2013-04-19 10:15:00,29.5,23.5,29.55,NNW,329,11.0,11.0,78,0.00,,---,0.00,232.00,VWS V14.00,2013-04-19 15:15:00,
2013-04-19 10:20:00,29.5,23.5,29.56,NW,315,6.0,6.0,78,0.00,,---,0.00,232.00,VWS V14.00,2013-04-19 15:20:00,
2013-04-19 10:25:00,30.0,24.0,29.56,North,3,10.0,10.0,78,0.00,,---,0.00,232.00,VWS V14.00,2013-04-19 15:25:00,
2013-04-19 10:30:00,30.4,24.4,29.56,North,352,4.0,4.0,78,0.00,,---,0.00,232.00,VWS V14.00,2013-04-19 15:30:00,
2013-04-19 10:35:00,30.4,22.8,29.57,NNW,333,12.0,12.0,73,0.00,,---,0.00,232.00,VWS V14.00,2013-04-19 15:35:00,
2013-04-19 10:40:00,29.8,22.2,29.57,North,353,8.0,8.0,73,0.00,,---,0.00,232.00,VWS V14.00,2013-04-19 15:40:00,
2013-04-19 10:45:00,29.8,22.2,29.57,NNW,337,9.0,9.0,73,0.00,,---,0.00,308.00,VWS V14.00,2013-04-19 15:45:00,
2013-04-19 10:50:00,29.8,22.2,29.58,WNW,302,12.0,12.0,73,0.00,,---,0.00,306.00,VWS V14.00,2013-04-19 15:50:00,
2013-04-19 10:55:00,29.8,22.2,29.58,North,359,5.0,5.0,73,0.00,,---,0.00,306.00,VWS V14.00,2013-04-19 15:55:00,
2013-04-19 11:00:00,30.6,23.0,29.58,NW,318,12.0,12.0,73,0.00,,---,0.00,306.00,VWS V14.00,2013-04-19 16:00:00,
2013-04-19 11:05:00,30.1,24.1,29.58,NW,326,10.0,10.0,78,0.00,,---,0.00,213.00,VWS V14.00,2013-04-19 16:05:00,
2013-04-19 11:10:00,30.1,24.4,29.58,NNW,342,7.0,7.0,79,0.00,,---,0.00,213.00,VWS V14.00,2013-04-19 16:10:00,
2013-04-19 11:15:00,30.1,24.4,29.58,NNW,330,3.0,3.0,79,0.00,,---,0.00,213.00,VWS V14.00,2013-04-19 16:15:00,
2013-04-19 11:20:00,30.4,25.6,29.59,NNW,333,17.0,17.0,82,0.00,,---,0.00,343.00,VWS V14.00,2013-04-19 16:20:00,
2013-04-19 11:25:00,30.6,25.8,29.59,NW,308,7.0,7.0,82,0.00,,---,0.00,380.00,VWS V14.00,2013-04-19 16:25:00,
2013-04-19 11:30:00,30.6,25.8,29.59,WNW,294,11.0,11.0,82,0.00,,---,0.00,380.00,VWS V14.00,2013-04-19 16:30:00,
2013-04-19 11:35:00,30.6,25.8,29.59,NW,322,5.0,7.0,82,0.00,,---,0.00,380.00,VWS V14.00,2013-04-19 16:35:00,
2013-04-19 11:40:00,31.5,25.4,29.59,NNW,336,11.0,14.0,78,0.00,,---,0.00,408.00,VWS V14.00,2013-04-19 16:40:00,
2013-04-19 11:45:00,31.0,25.0,29.59,NNW,336,8.0,8.0,78,0.00,,---,0.00,408.00,VWS V14.00,2013-04-19 16:45:00,
2013-04-19 11:50:00,31.0,25.0,29.60,NNW,329,8.0,8.0,78,0.00,,---,0.00,408.00,VWS V14.00,2013-04-19 16:50:00,
2013-04-19 11:55:00,31.5,24.2,29.60,North,357,10.0,25.0,74,0.00,,---,0.00,408.00,VWS V14.00,2013-04-19 16:55:00,
2013-04-19 12:00:00,31.5,23.5,29.60,NW,323,16.0,16.0,72,0.00,,---,0.00,408.00,VWS V14.00,2013-04-19 17:00:00,
2013-04-19 12:05:00,31.3,23.3,29.61,WNW,296,19.0,20.0,72,0.00,,---,0.00,380.00,VWS V14.00,2013-04-19 17:05:00,
2013-04-19 12:10:00,31.5,23.5,29.61,North,353,5.0,9.0,72,0.00,,---,0.00,380.00,VWS V14.00,2013-04-19 17:10:00,
2013-04-19 12:15:00,31.9,24.9,29.61,NW,323,11.0,18.0,75,0.00,,---,0.01,380.00,VWS V14.00,2013-04-19 17:15:00,
2013-04-19 12:20:00,32.5,23.8,29.61,WNW,296,12.0,14.0,70,0.00,,---,0.01,491.00,VWS V14.00,2013-04-19 17:20:00,
2013-04-19 12:25:00,32.8,23.8,29.61,NW,326,8.0,12.0,69,0.00,,---,0.01,491.00,VWS V14.00,2013-04-19 17:25:00,
2013-04-19 12:30:00,33.2,23.8,29.61,NNW,335,6.0,11.0,68,0.04,,---,0.02,479.00,VWS V14.00,2013-04-19 17:30:00,
2013-04-19 12:35:00,32.9,23.5,29.61,NW,306,6.0,9.0,68,0.04,,---,0.02,479.00,VWS V14.00,2013-04-19 17:35:00,
2013-04-19 12:40:00,32.5,23.1,29.61,NW,308,12.0,12.0,68,0.07,,---,0.02,479.00,VWS V14.00,2013-04-19 17:40:00,
2013-04-19 12:45:00,32.2,23.9,29.61,NW,308,12.0,12.0,71,0.07,,---,0.03,479.00,VWS V14.00,2013-04-19 17:45:00,
2013-04-19 12:50:00,32.5,24.2,29.62,WNW,294,11.0,17.0,71,0.05,,---,0.03,479.00,VWS V14.00,2013-04-19 17:50:00,
2013-04-19 12:55:00,32.5,24.2,29.62,NW,322,16.0,16.0,71,0.05,,---,0.04,479.00,VWS V14.00,2013-04-19 17:55:00,
2013-04-19 13:00:00,32.4,24.1,29.62,WNW,298,16.0,16.0,71,0.05,,---,0.04,479.00,VWS V14.00,2013-04-19 18:00:00,
2013-04-19 13:05:00,32.4,24.1,29.62,NW,322,11.0,11.0,71,0.04,,---,0.04,479.00,VWS V14.00,2013-04-19 18:05:00,
2013-04-19 13:10:00,32.7,24.4,29.62,WNW,295,10.0,10.0,71,0.04,,---,0.05,479.00,VWS V14.00,2013-04-19 18:10:00,
2013-04-19 13:15:00,33.2,24.8,29.62,WNW,295,8.0,8.0,71,0.04,,---,0.05,479.00,VWS V14.00,2013-04-19 18:15:00,
2013-04-19 13:20:00,34.3,25.9,29.62,NNW,328,15.0,15.0,71,0.04,,---,0.06,917.00,VWS V14.00,2013-04-19 18:20:00,
2013-04-19 13:25:00,34.3,23.0,29.62,North,3,13.0,13.0,63,0.04,,---,0.06,917.00,VWS V14.00,2013-04-19 18:25:00,
2013-04-19 13:30:00,34.1,22.8,29.62,NW,318,15.0,15.0,63,0.04,,---,0.06,917.00,VWS V14.00,2013-04-19 18:30:00,
2013-04-19 13:35:00,34.1,22.8,29.64,NW,315,8.0,22.0,63,0.07,,---,0.07,917.00,VWS V14.00,2013-04-19 18:35:00,
2013-04-19 13:40:00,32.5,24.5,29.64,North,0,5.0,13.0,72,0.05,,---,0.07,917.00,VWS V14.00,2013-04-19 18:40:00,
2013-04-19 13:45:00,32.5,24.5,29.64,NW,325,5.0,11.0,72,0.04,,---,0.07,917.00,VWS V14.00,2013-04-19 18:45:00,
2013-04-19 13:50:00,33.7,26.0,29.64,NNW,340,6.0,8.0,73,0.04,,---,0.07,917.00,VWS V14.00,2013-04-19 18:50:00,
2013-04-19 13:55:00,34.1,26.0,29.64,NW,318,16.0,20.0,72,0.04,,---,0.09,917.00,VWS V14.00,2013-04-19 18:55:00,
2013-04-19 14:00:00,33.7,24.6,29.64,WNW,302,11.0,12.0,69,0.04,,---,0.09,399.00,VWS V14.00,2013-04-19 19:00:00,
2013-04-19 14:05:00,33.7,24.6,29.65,WNW,296,5.0,13.0,69,0.04,,---,0.10,399.00,VWS V14.00,2013-04-19 19:05:00,
2013-04-19 14:10:00,33.7,24.6,29.65,North,0,11.0,11.0,69,0.06,,---,0.10,399.00,VWS V14.00,2013-04-19 19:10:00,
2013-04-19 14:15:00,34.3,25.2,29.65,NNW,336,10.0,12.0,69,0.06,,---,0.10,172.00,VWS V14.00,2013-04-19 19:15:00,
2013-04-19 14:20:00,34.7,25.6,29.65,NW,319,13.0,13.0,69,0.04,,---,0.10,172.00,VWS V14.00,2013-04-19 19:20:00,
2013-04-19 14:25:00,35.2,22.7,29.65,NW,309,8.0,13.0,60,0.04,,---,0.11,167.00,VWS V14.00,2013-04-19 19:25:00,
2013-04-19 14:30:00,35.3,22.8,29.65,NW,315,8.0,12.0,60,0.04,,---,0.11,167.00,VWS V14.00,2013-04-19 19:30:00,
2013-04-19 14:35:00,35.0,22.5,29.66,WNW,294,11.0,24.0,60,0.04,,---,0.12,167.00,VWS V14.00,2013-04-19 19:35:00,
2013-04-19 14:40:00,34.4,23.5,29.66,NW,315,13.0,17.0,64,0.05,,---,0.12,167.00,VWS V14.00,2013-04-19 19:40:00,
2013-04-19 14:45:00,34.4,23.5,29.66,NW,312,17.0,17.0,64,0.05,,---,0.12,167.00,VWS V14.00,2013-04-19 19:45:00,
2013-04-19 14:50:00,34.4,23.5,29.67,NW,312,5.0,10.0,64,0.05,,---,0.13,167.00,VWS V14.00,2013-04-19 19:50:00,
2013-04-19 14:55:00,34.6,23.7,29.67,NW,305,11.0,14.0,64,0.05,,---,0.13,167.00,VWS V14.00,2013-04-19 19:55:00,
2013-04-19 15:00:00,34.6,22.9,29.67,NW,326,8.0,11.0,62,0.05,,---,0.14,167.00,VWS V14.00,2013-04-19 20:00:00,
2013-04-19 15:05:00,34.9,23.2,29.68,NNW,336,12.0,12.0,62,0.04,,---,0.14,167.00,VWS V14.00,2013-04-19 20:05:00,
2013-04-19 15:10:00,35.0,23.3,29.68,NW,318,16.0,16.0,62,0.04,,---,0.14,167.00,VWS V14.00,2013-04-19 20:10:00,
2013-04-19 15:15:00,35.0,23.3,29.68,NW,306,6.0,10.0,62,0.04,,---,0.14,167.00,VWS V14.00,2013-04-19 20:15:00,
2013-04-19 15:20:00,35.8,22.1,29.68,NNW,335,7.0,7.0,57,0.04,,---,0.15,167.00,VWS V14.00,2013-04-19 20:20:00,
2013-04-19 15:25:00,35.8,22.5,29.68,NW,316,10.0,10.0,58,0.04,,---,0.15,167.00,VWS V14.00,2013-04-19 20:25:00,
2013-04-19 15:30:00,35.8,22.5,29.68,NNW,332,5.0,7.0,58,0.04,,---,0.15,167.00,VWS V14.00,2013-04-19 20:30:00,
2013-04-19 15:35:00,36.0,22.7,29.69,NW,309,12.0,12.0,58,0.04,,---,0.16,250.00,VWS V14.00,2013-04-19 20:35:00,
2013-04-19 15:40:00,36.0,22.7,29.69,North,1,8.0,8.0,58,0.04,,---,0.16,250.00,VWS V14.00,2013-04-19 20:40:00,
2013-04-19 15:45:00,36.0,22.7,29.69,NNE,21,6.0,6.0,58,0.04,,---,0.16,250.00,VWS V14.00,2013-04-19 20:45:00,
2013-04-19 15:50:00,35.8,21.6,29.69,NW,316,11.0,11.0,56,0.04,,---,0.16,250.00,VWS V14.00,2013-04-19 20:50:00,
2013-04-19 15:55:00,35.6,21.9,29.69,NW,319,15.0,15.0,57,0.04,,---,0.17,250.00,VWS V14.00,2013-04-19 20:55:00,
2013-04-19 16:00:00,35.6,21.9,29.69,NW,318,11.0,16.0,57,0.04,,---,0.17,250.00,VWS V14.00,2013-04-19 21:00:00,
2013-04-19 16:05:00,35.6,21.9,29.70,NW,325,11.0,11.0,57,0.04,,---,0.17,250.00,VWS V14.00,2013-04-19 21:05:00,
2013-04-19 16:10:00,36.0,21.4,29.70,NNW,337,7.0,7.0,55,0.04,,---,0.18,250.00,VWS V14.00,2013-04-19 21:10:00,
2013-04-19 16:15:00,36.3,21.7,29.70,West,274,5.0,13.0,55,0.04,,---,0.18,250.00,VWS V14.00,2013-04-19 21:15:00,
2013-04-19 16:20:00,36.3,20.8,29.71,North,3,5.0,5.0,53,0.04,,---,0.18,250.00,VWS V14.00,2013-04-19 21:20:00,
2013-04-19 16:25:00,36.6,21.1,29.71,NW,318,13.0,13.0,53,0.04,,---,0.19,250.00,VWS V14.00,2013-04-19 21:25:00,
2013-04-19 16:30:00,36.6,22.0,29.71,NW,320,3.0,3.0,55,0.04,,---,0.19,250.00,VWS V14.00,2013-04-19 21:30:00,
2013-04-19 16:35:00,37.2,22.5,29.72,WNW,299,12.0,12.0,55,0.04,,---,0.19,250.00,VWS V14.00,2013-04-19 21:35:00,
2013-04-19 16:40:00,36.6,21.5,29.72,NW,320,10.0,10.0,54,0.04,,---,0.19,250.00,VWS V14.00,2013-04-19 21:40:00,
2013-04-19 16:45:00,36.9,21.8,29.72,NW,306,8.0,8.0,54,0.06,,---,0.21,250.00,VWS V14.00,2013-04-19 21:45:00,
2013-04-19 16:50:00,36.5,21.5,29.72,NNE,31,6.0,6.0,54,0.06,,---,0.21,250.00,VWS V14.00,2013-04-19 21:50:00,
2013-04-19 16:55:00,36.3,21.3,29.72,NW,323,6.0,6.0,54,0.05,,---,0.21,250.00,VWS V14.00,2013-04-19 21:55:00,
2013-04-19 17:00:00,36.2,22.0,29.72,NNW,342,7.0,10.0,56,0.05,,---,0.22,560.00,VWS V14.00,2013-04-19 22:00:00,
2013-04-19 17:05:00,36.2,22.0,29.73,NNW,343,10.0,10.0,56,0.05,,---,0.22,560.00,VWS V14.00,2013-04-19 22:05:00,
2013-04-19 17:10:00,35.9,21.3,29.73,NW,319,14.0,14.0,55,0.05,,---,0.22,560.00,VWS V14.00,2013-04-19 22:10:00,
2013-04-19 17:15:00,35.8,21.2,29.73,NW,305,6.0,6.0,55,0.00,,---,0.22,560.00,VWS V14.00,2013-04-19 22:15:00,
2013-04-19 17:20:00,35.9,19.5,29.75,NNW,335,11.0,18.0,51,0.00,,---,0.23,475.00,VWS V14.00,2013-04-19 22:20:00,
2013-04-19 17:25:00,35.9,19.5,29.75,NW,306,8.0,8.0,51,0.00,,---,0.23,475.00,VWS V14.00,2013-04-19 22:25:00,
2013-04-19 17:30:00,36.3,19.9,29.75,NW,320,13.0,13.0,51,0.00,,---,0.23,475.00,VWS V14.00,2013-04-19 22:30:00,
2013-04-19 17:35:00,36.2,19.8,29.75,North,359,7.0,7.0,51,0.00,,---,0.23,475.00,VWS V14.00,2013-04-19 22:35:00,
2013-04-19 17:40:00,36.0,19.6,29.75,WNW,288,10.0,10.0,51,0.00,,---,0.23,211.00,VWS V14.00,2013-04-19 22:40:00,
2013-04-19 17:45:00,36.0,19.6,29.75,NW,311,7.0,7.0,51,0.00,,---,0.23,271.00,VWS V14.00,2013-04-19 22:45:00,
2013-04-19 17:50:00,36.2,21.2,29.76,WNW,298,10.0,10.0,54,0.00,,---,0.23,271.00,VWS V14.00,2013-04-19 22:50:00,
2013-04-19 17:55:00,36.5,21.0,29.76,NW,309,4.0,4.0,53,0.00,,---,0.23,311.00,VWS V14.00,2013-04-19 22:55:00,
2013-04-19 18:00:00,36.8,20.8,29.76,NW,312,12.0,12.0,52,0.00,,---,0.23,311.00,VWS V14.00,2013-04-19 23:00:00,
2013-04-19 18:05:00,36.3,21.3,29.77,WNW,296,7.0,7.0,54,0.00,,---,0.23,146.00,VWS V14.00,2013-04-19 23:05:00,
2013-04-19 18:10:00,36.2,21.2,29.77,WNW,284,8.0,8.0,54,0.00,,---,0.23,135.00,VWS V14.00,2013-04-19 23:10:00,
2013-04-19 18:15:00,35.8,20.8,29.77,WNW,291,9.0,10.0,54,0.00,,---,0.23,135.00,VWS V14.00,2013-04-19 23:15:00,
2013-04-19 18:20:00,35.5,23.0,29.78,NW,315,7.0,7.0,60,0.00,,---,0.23,135.00,VWS V14.00,2013-04-19 23:20:00,
2013-04-19 18:25:00,35.0,22.5,29.78,WNW,299,8.0,9.0,60,0.00,,---,0.23,135.00,VWS V14.00,2013-04-19 23:25:00,
2013-04-19 18:30:00,35.0,22.5,29.78,WNW,296,5.0,11.0,60,0.00,,---,0.23,60.00,VWS V14.00,2013-04-19 23:30:00,
2013-04-19 18:35:00,35.2,22.7,29.78,North,359,7.0,7.0,60,0.00,,---,0.23,120.00,VWS V14.00,2013-04-19 23:35:00,
2013-04-19 18:40:00,35.3,22.4,29.78,NW,318,8.0,8.0,59,0.00,,---,0.23,77.00,VWS V14.00,2013-04-19 23:40:00,
2013-04-19 18:45:00,35.5,22.6,29.78,NW,313,5.0,10.0,59,0.00,,---,0.23,69.00,VWS V14.00,2013-04-19 23:45:00,
2013-04-19 18:50:00,35.5,22.2,29.79,North,0,3.0,6.0,58,0.00,,---,0.23,81.00,VWS V14.00,2013-04-19 23:50:00,
2013-04-19 18:55:00,35.5,21.8,29.79,NW,313,3.0,4.0,57,0.00,,---,0.23,81.00,VWS V14.00,2013-04-19 23:55:00,
2013-04-19 19:00:00,35.5,21.8,29.79,NW,309,12.0,12.0,57,0.00,,---,0.23,81.00,VWS V14.00,2013-04-20 00:00:00,
2013-04-19 19:05:00,35.3,21.6,29.80,NNW,346,8.0,8.0,57,0.00,,---,0.23,81.00,VWS V14.00,2013-04-20 00:05:00,
2013-04-19 19:10:00,35.3,21.6,29.80,NNW,346,3.0,3.0,57,0.00,,---,0.23,35.00,VWS V14.00,2013-04-20 00:10:00,
2013-04-19 19:15:00,35.3,21.6,29.80,NW,325,5.0,7.0,57,0.00,,---,0.23,35.00,VWS V14.00,2013-04-20 00:15:00,
2013-04-19 19:20:00,35.3,21.6,29.80,NNW,342,1.0,1.0,57,0.00,,---,0.23,35.00,VWS V14.00,2013-04-20 00:20:00,
2013-04-19 19:25:00,35.5,21.8,29.80,North,354,1.0,6.0,57,0.00,,---,0.23,35.00,VWS V14.00,2013-04-20 00:25:00,
2013-04-19 19:30:00,35.5,21.8,29.80,North,354,1.0,1.0,57,0.00,,---,0.23,35.00,VWS V14.00,2013-04-20 00:30:00,
2013-04-19 19:35:00,35.6,21.9,29.81,North,0,4.0,4.0,57,0.00,,---,0.23,35.00,VWS V14.00,2013-04-20 00:35:00,
2013-04-19 19:40:00,35.6,21.9,29.81,NW,306,5.0,5.0,57,0.00,,---,0.23,35.00,VWS V14.00,2013-04-20 00:40:00,
2013-04-19 19:45:00,35.5,21.8,29.81,WNW,288,10.0,10.0,57,0.00,,---,0.23,35.00,VWS V14.00,2013-04-20 00:45:00,
2013-04-19 19:50:00,35.5,21.8,29.81,NNW,337,2.0,2.0,57,0.00,,---,0.23,35.00,VWS V14.00,2013-04-20 00:50:00,
2013-04-19 19:55:00,35.3,21.6,29.81,NW,313,5.0,5.0,57,0.00,,---,0.23,35.00,VWS V14.00,2013-04-20 00:55:00,
2013-04-19 20:00:00,35.2,21.5,29.81,WNW,299,7.0,7.0,57,0.00,,---,0.23,35.00,VWS V14.00,2013-04-20 01:00:00,
2013-04-19 20:05:00,34.9,21.2,29.82,West,281,4.0,4.0,57,0.00,,---,0.23,35.00,VWS V14.00,2013-04-20 01:05:00,
2013-04-19 20:10:00,34.9,21.2,29.82,NNW,328,2.0,2.0,57,0.00,,---,0.23,35.00,VWS V14.00,2013-04-20 01:10:00,
2013-04-19 20:15:00,34.7,21.0,29.82,West,277,10.0,10.0,57,0.00,,---,0.23,35.00,VWS V14.00,2013-04-20 01:15:00,
2013-04-19 20:20:00,34.6,21.0,29.83,NW,311,7.0,7.0,57,0.00,,---,0.23,0.00,VWS V14.00,2013-04-20 01:20:00,
2013-04-19 20:25:00,34.6,21.0,29.83,WNW,301,4.0,4.0,57,0.00,,---,0.23,0.00,VWS V14.00,2013-04-20 01:25:00,
2013-04-19 20:30:00,34.6,21.0,29.83,NNE,24,10.0,10.0,57,0.00,,---,0.23,0.00,VWS V14.00,2013-04-20 01:30:00,
2013-04-19 20:35:00,34.4,20.8,29.84,NW,311,6.0,6.0,57,0.00,,---,0.23,0.00,VWS V14.00,2013-04-20 01:35:00,
2013-04-19 20:40:00,34.3,20.7,29.84,WNW,299,5.0,5.0,57,0.00,,---,0.23,0.00,VWS V14.00,2013-04-20 01:40:00,
2013-04-19 20:45:00,34.3,20.7,29.84,NNW,335,5.0,5.0,57,0.00,,---,0.23,0.00,VWS V14.00,2013-04-20 01:45:00,
2013-04-19 20:50:00,34.1,20.5,29.84,NW,319,6.0,6.0,57,0.00,,---,0.23,0.00,VWS V14.00,2013-04-20 01:50:00,
2013-04-19 20:55:00,34.0,20.4,29.84,NW,312,3.0,3.0,57,0.00,,---,0.23,0.00,VWS V14.00,2013-04-20 01:55:00,
2013-04-19 21:00:00,33.8,16.7,29.84,NW,322,3.0,6.0,49,0.00,,---,0.23,0.00,VWS V14.00,2013-04-20 02:00:00,
2013-04-19 21:05:00,33.7,16.6,29.86,NW,323,3.0,3.0,49,0.00,,---,0.23,0.00,VWS V14.00,2013-04-20 02:05:00,
2013-04-19 21:10:00,33.5,16.4,29.86,NW,315,3.0,3.0,49,0.00,,---,0.23,0.00,VWS V14.00,2013-04-20 02:10:00,
2013-04-19 21:15:00,33.4,16.3,29.86,NW,306,3.0,3.0,49,0.00,,---,0.23,0.00,VWS V14.00,2013-04-20 02:15:00,
2013-04-19 21:20:00,33.1,16.0,29.87,WNW,302,3.0,3.0,49,0.00,,---,0.23,0.00,VWS V14.00,2013-04-20 02:20:00,
2013-04-19 21:25:00,33.1,16.0,29.87,NNW,328,2.0,6.0,49,0.00,,---,0.23,0.00,VWS V14.00,2013-04-20 02:25:00,
2013-04-19 21:30:00,32.9,15.9,29.87,WNW,291,3.0,3.0,49,0.00,,---,0.23,0.00,VWS V14.00,2013-04-20 02:30:00,
2013-04-19 21:35:00,32.7,15.7,29.88,NW,316,2.0,2.0,49,0.00,,---,0.23,0.00,VWS V14.00,2013-04-20 02:35:00,
2013-04-19 21:40:00,32.5,15.5,29.88,NW,305,1.0,1.0,49,0.00,,---,0.23,0.00,VWS V14.00,2013-04-20 02:40:00,
2013-04-19 21:45:00,32.4,15.4,29.88,WNW,301,2.0,2.0,49,0.00,,---,0.23,0.00,VWS V14.00,2013-04-20 02:45:00,
2013-04-19 21:50:00,32.1,15.1,29.88,NNW,330,4.0,6.0,49,0.00,,---,0.23,0.00,VWS V14.00,2013-04-20 02:50:00,
2013-04-19 21:55:00,31.9,16.7,29.88,WNW,298,5.0,5.0,53,0.00,,---,0.23,0.00,VWS V14.00,2013-04-20 02:55:00,
2013-04-19 22:00:00,31.9,16.7,29.88,WNW,302,3.0,3.0,53,0.00,,---,0.23,0.00,VWS V14.00,2013-04-20 03:00:00,
2013-04-19 22:05:00,31.8,16.2,29.89,WNW,285,7.0,7.0,52,0.00,,---,0.23,0.00,VWS V14.00,2013-04-20 03:05:00,
2013-04-19 22:10:00,31.8,16.2,29.89,NW,305,2.0,2.0,52,0.00,,---,0.23,0.00,VWS V14.00,2013-04-20 03:10:00,
2013-04-19 22:15:00,31.8,16.2,29.89,NW,319,2.0,3.0,52,0.00,,---,0.23,0.00,VWS V14.00,2013-04-20 03:15:00,
2013-04-19 22:20:00,31.6,16.0,29.90,NW,316,2.0,2.0,52,0.00,,---,0.23,0.00,VWS V14.00,2013-04-20 03:20:00,
2013-04-19 22:25:00,31.5,15.9,29.90,NW,313,2.0,2.0,52,0.00,,---,0.23,0.00,VWS V14.00,2013-04-20 03:25:00,
2013-04-19 22:30:00,31.5,15.9,29.90,NW,312,1.0,1.0,52,0.00,,---,0.23,0.00,VWS V14.00,2013-04-20 03:30:00,
2013-04-19 22:35:00,31.0,15.4,29.90,NW,326,3.0,3.0,52,0.00,,---,0.23,0.00,VWS V14.00,2013-04-20 03:35:00,
2013-04-19 22:40:00,30.9,16.6,29.90,NW,319,2.0,3.0,55,0.00,,---,0.23,0.00,VWS V14.00,2013-04-20 03:40:00,
2013-04-19 22:45:00,30.7,16.5,29.90,WNW,289,5.0,5.0,55,0.00,,---,0.23,0.00,VWS V14.00,2013-04-20 03:45:00,
2013-04-19 22:50:00,30.7,16.5,29.91,NNW,333,2.0,2.0,55,0.00,,---,0.23,0.00,VWS V14.00,2013-04-20 03:50:00,
2013-04-19 22:55:00,30.6,15.5,29.91,WNW,282,4.0,4.0,53,0.00,,---,0.23,0.00,VWS V14.00,2013-04-20 03:55:00,
2013-04-19 23:00:00,30.6,15.5,29.91,NW,313,4.0,4.0,53,0.00,,---,0.23,0.00,VWS V14.00,2013-04-20 04:00:00,
2013-04-19 23:01:00,30.6,15.5,29.91,NNW,347,1.0,1.0,53,0.00,,---,0.23,0.00,VWS V14.00,2013-04-20 04:01:00,
2013-04-19 23:06:00,30.3,14.4,29.91,NW,318,2.0,3.0,51,0.00,,---,0.23,0.00,VWS V14.00,2013-04-20 04:06:00,
2013-04-19 23:11:00,30.1,14.2,29.91,NW,315,1.0,1.0,51,0.00,,---,0.23,0.00,VWS V14.00,2013-04-20 04:11:00,
2013-04-19 23:16:00,30.1,14.2,29.91,NW,320,3.0,3.0,51,0.00,,---,0.23,0.00,VWS V14.00,2013-04-20 04:16:00,
2013-04-19 23:21:00,30.0,14.1,29.92,NW,320,2.0,2.0,51,0.00,,---,0.23,0.00,VWS V14.00,2013-04-20 04:21:00,
2013-04-19 23:26:00,29.8,13.9,29.92,NNW,335,1.0,4.0,51,0.00,,---,0.23,0.00,VWS V14.00,2013-04-20 04:26:00,
2013-04-19 23:31:00,29.8,13.9,29.92,NW,308,1.0,3.0,51,0.00,,---,0.23,0.00,VWS V14.00,2013-04-20 04:31:00,
2013-04-19 23:36:00,29.7,13.8,29.92,WNW,299,1.0,3.0,51,0.00,,---,0.23,0.00,VWS V14.00,2013-04-20 04:36:00,
2013-04-19 23:41:00,29.5,13.6,29.92,WNW,296,3.0,3.0,51,0.00,,---,0.23,0.00,VWS V14.00,2013-04-20 04:41:00,
2013-04-19 23:46:00,29.5,13.6,29.92,WNW,302,1.0,2.0,51,0.00,,---,0.23,0.00,VWS V14.00,2013-04-20 04:46:00,
2013-04-19 23:51:00,29.3,13.9,29.93,WNW,302,1.0,2.0,52,0.00,,---,0.23,0.00,VWS V14.00,2013-04-20 04:51:00,
2013-04-19 23:56:00,29.3,14.3,29.93,WNW,301,2.0,2.0,53,0.00,,---,0.23,0.00,VWS V14.00,2013-04-20 04:56:00,